STARLINK-2167 (48559 NORAD) Tracking and Keplerian Element Data

This shows tracking and keplerian element data for the satellite.

Feedback or suggestion? Click here.




ElementValue
Catalog48559
NameSTARLINK-2167
Epoch Orbit1140
Epoch Day210.85589192
Epoch Year2021
RAAN130.7497
Inclination53.0337
Eccentricity0.0002136
Argument of Perigee78.4804
Mean Anonmoly281.6425
Mean Motion15.06394696
Decay Rate-7.23E-06
L11 48559U 21041G 21210.85589192 -.00000723 00000-0 -29636-4 0 9996
L22 48559 53.0337 130.7497 0002136 78.4804 281.6425 15.06394696 11401

Live tracking and technical data element details for STARLINK-2167 (NORAD 48559). STARLINK-2167 can be tracked NOW for your location showing map with azimuth and elevation plus other details from your city location.

Track the satellite on the map from your city or location and see movement details for azimuth, elevation, latitude, longitude, range, height, and movement on the map or in text.







IsCatalogInMostPopularTable: catalog: 48559, numindb: 21
Update: records affected: 1



GetName: 48559 STARLINK-2167

Hit Count: updated at: Sat, 31 Jul 2021 16:34:41 GMT